STARLINK-31446, 59315

Orbit data source: Space-Track

STARLINK-31446, 59315 is a payload satellite owned by SpaceX/Seattle (US) in LEO that was launched on Sun, 24 Mar 2024 UTC via an FALCON 9 launch vehicle from the Air Force Eastern Test Range (AFETR). Payload-class satellites include a variety of spacecraft equipped with specific instruments for various scientific and technological missions. These include communications satellites like Starlink; space stations such as the ISS; scientific satellites like the Hubble; Earth observation satellites from companies like Planet Labs, Umbra, and HawkEye 360; GPS; miniature CubeSats for education and research; and military/defense satellites.

Loading next visibility...
Identifier
59315, 2024-056V
Orbit
LEO
Country
Flag of USUS
Related business
Manufacturer
SpaceX/Seattle
Mission
Operational Commercial Communications
Bus & Motor
STARLINK V2M, Unknown motor
Mass
730 kg wet, ~700 kg dry
Launch date (UTC)
2024-03-24 (2 years ago)
Launch vehicle
FALCON 9
Launch site
Air Force Eastern Test Range (AFETR)
Object type
Payload
Rocket body
Debris
Shape & HBR
Box + 2 Pan, 17.7 m
Radar Cross Section
33.884 m², Large (>1 m²)

Expand to show TLE details & history
Last TLE update: 3 days ago

TLE from 3 days ago
0 STARLINK-31446
1 59315U 24056V   26170.27465774  .00002762  00000-0  10993-3 0  9990
2 59315  43.0056  16.7351 0000508 274.8186  85.2608 15.27557820126690
Epoch: 2026-06-19T06:35Z
TLE epoch observation values (Epoch: 2026-06-19T06:35:30.428Z)
Latitude
-0.00001°
Longitude
10.35233°
Altitude
482.863 km
Speed
7.626 km/s
True Right ascension
01h 06m 56s
True Declination
0° 00' 00"
Sunlit
Object was in daylight at epoch
Visualization orbit readout
Latitude
Unknown
Longitude
Unknown
Altitude
Unknown
Speed
Unknown
Apparent Right ascension
Unknown
Apparent Declination
Unknown
Sunlit
N/A
Visualization observer readout
Local Sidereal Time
21:32:55
Azimuth
Unknown
Elevation
Unknown
Doppler factor
Unknown
Orbital elements
Apogee altitude
485.408 km
Perigee altitude
484.711 km
Semi-major axis
6,863.197 km
Eccentricity
0.00005
Inclination
43.0056°
RAAN
16.7351°
Arg. of periapsis
274.8186°
True anomaly
85.2666°
Mean anomaly
85.2608°
Eccentric anomaly
85.2637°
Mean motion
3.81728 °/min
Orbital period
94.31 mins
BSTAR
0.00010993
Loading maneuver chart data...
Computing Atmospheric mass density...
Loading historical data...
Loading historical data...
Loading historical data...
Loading historical data...
Loading historical data...
Loading historical data...
Loading historical data...

Documentation

Showing up to 5 results
|